Time,TemperatureF,DewpointF,PressureIn,WindDirection,WindDirectionDegrees,WindSpeedMPH,WindSpeedGustMPH,Humidity,HourlyPrecipIn,Conditions,Clouds,dailyrainin,SoftwareType,DateUTC
2013-02-23 10:27:00,24.4,23.0,29.75,SSE,167,2.0,-999.0,94,-99.99,,,0.00,meteohub,2013-02-23 09:27:00,
2013-02-23 10:37:00,24.4,23.2,29.75,SSW,211,4.0,7.0,95,0.00,,,0.00,meteohub,2013-02-23 09:37:00,
2013-02-23 10:42:00,24.4,23.0,29.75,South,173,5.0,7.0,94,0.00,,,0.00,meteohub,2013-02-23 09:42:00,
2013-02-23 10:47:00,24.6,23.4,29.75,SW,217,1.0,6.0,95,0.00,,,0.00,meteohub,2013-02-23 09:47:00,
2013-02-23 10:52:00,24.8,23.5,29.75,South,178,2.0,6.0,95,0.00,,,0.00,meteohub,2013-02-23 09:52:00,
2013-02-23 10:57:00,25.0,23.7,29.75,SSE,165,4.0,6.0,95,0.00,,,0.00,meteohub,2013-02-23 09:57:00,
2013-02-23 11:07:00,25.2,23.9,29.75,SSE,167,2.0,5.0,95,0.00,,,0.00,meteohub,2013-02-23 10:07:00,
2013-02-23 11:17:00,25.3,24.1,29.74,SSE,167,7.0,7.0,95,0.00,,,0.00,meteohub,2013-02-23 10:17:00,
2013-02-23 11:22:00,25.3,24.1,29.74,South,170,0.0,7.0,95,0.00,,,0.00,meteohub,2013-02-23 10:22:00,
2013-02-23 11:32:00,25.3,24.1,29.74,SSE,163,2.0,8.0,95,0.00,,,0.00,meteohub,2013-02-23 10:32:00,
2013-02-23 11:37:00,25.5,24.3,29.74,South,171,6.0,8.0,95,0.00,,,0.00,meteohub,2013-02-23 10:37:00,
2013-02-23 11:47:00,25.5,24.3,29.74,SSW,192,5.0,8.0,95,0.00,,,0.00,meteohub,2013-02-23 10:47:00,
2013-02-23 11:52:00,25.7,24.4,29.73,SW,217,2.0,8.0,95,0.00,,,0.00,meteohub,2013-02-23 10:52:00,
2013-02-23 11:57:00,25.7,24.4,29.74,SE,143,3.0,8.0,95,0.00,,,0.00,meteohub,2013-02-23 10:57:00,
2013-02-23 12:02:00,25.7,24.4,29.73,South,174,4.0,7.0,95,0.00,,,0.00,meteohub,2013-02-23 11:02:00,
2013-02-23 12:12:00,25.9,24.6,29.73,South,178,4.0,9.0,95,0.00,,,0.00,meteohub,2013-02-23 11:12:00,
2013-02-23 12:17:00,25.9,24.6,29.73,South,172,2.0,9.0,95,0.00,,,0.00,meteohub,2013-02-23 11:17:00,
2013-02-23 12:27:00,26.1,24.8,29.73,SSE,159,4.0,6.0,95,0.00,,,0.00,meteohub,2013-02-23 11:27:00,
2013-02-23 12:32:00,26.1,24.8,29.73,SW,230,1.0,6.0,95,0.00,,,0.00,meteohub,2013-02-23 11:32:00,
2013-02-23 12:37:00,26.1,24.8,29.73,SSE,154,3.0,6.0,95,0.00,,,0.00,meteohub,2013-02-23 11:37:00,
2013-02-23 12:42:00,26.1,24.8,29.73,South,186,0.0,6.0,95,0.00,,,0.00,meteohub,2013-02-23 11:42:00,
2013-02-23 12:47:00,26.1,24.8,29.73,South,190,2.0,6.0,95,0.00,,,0.00,meteohub,2013-02-23 11:47:00,
2013-02-23 12:52:00,26.2,25.0,29.73,SSE,159,3.0,6.0,95,0.00,,,0.00,meteohub,2013-02-23 11:52:00,
2013-02-23 12:57:00,26.2,25.0,29.73,South,189,2.0,7.0,95,0.00,,,0.00,meteohub,2013-02-23 11:57:00,
2013-02-23 13:02:00,26.2,25.0,29.73,SSE,158,2.0,7.0,95,0.00,,,0.00,meteohub,2013-02-23 12:02:00,
2013-02-23 13:12:00,26.2,25.0,29.73,South,178,4.0,4.0,95,0.00,,,0.00,meteohub,2013-02-23 12:12:00,
2013-02-23 13:22:00,26.4,25.2,29.73,SSE,157,2.0,6.0,95,0.00,,,0.00,meteohub,2013-02-23 12:22:00,
2013-02-23 13:27:00,26.6,25.3,29.73,SSE,155,2.0,6.0,95,0.00,,,0.00,meteohub,2013-02-23 12:27:00,
2013-02-23 13:37:00,26.8,25.5,29.73,SSE,160,2.0,5.0,95,0.00,,,0.00,meteohub,2013-02-23 12:37:00,
2013-02-23 13:42:00,26.8,25.5,29.73,SSE,161,2.0,4.0,95,0.00,,,0.00,meteohub,2013-02-23 12:42:00,
2013-02-23 13:47:00,27.0,25.7,29.73,South,184,1.0,4.0,95,0.00,,,0.00,meteohub,2013-02-23 12:47:00,
2013-02-23 13:52:00,27.0,25.7,29.73,South,190,1.0,5.0,95,0.00,,,0.00,meteohub,2013-02-23 12:52:00,
2013-02-23 13:57:00,27.0,25.7,29.74,SSE,167,1.0,5.0,95,0.00,,,0.00,meteohub,2013-02-23 12:57:00,
2013-02-23 14:07:00,27.0,25.7,29.74,SSW,193,1.0,4.0,95,0.00,,,0.00,meteohub,2013-02-23 13:07:00,
2013-02-23 14:17:00,27.0,25.7,29.74,SSE,168,0.0,4.0,95,0.00,,,0.00,meteohub,2013-02-23 13:17:00,
2013-02-23 14:27:00,27.1,25.9,29.74,SW,221,1.0,4.0,95,0.00,,,0.00,meteohub,2013-02-23 13:27:00,
2013-02-23 14:37:00,27.1,25.9,29.74,SSW,194,1.0,4.0,95,0.00,,,0.00,meteohub,2013-02-23 13:37:00,
2013-02-23 14:42:00,27.1,25.9,29.74,SW,229,1.0,4.0,95,0.00,,,0.00,meteohub,2013-02-23 13:42:00,
2013-02-23 14:47:00,27.1,25.9,29.74,SSE,161,1.0,4.0,95,0.00,,,0.00,meteohub,2013-02-23 13:47:00,
2013-02-23 14:52:00,27.3,26.1,29.74,SSW,206,1.0,4.0,95,0.00,,,0.00,meteohub,2013-02-23 13:52:00,
2013-02-23 15:02:00,27.3,26.1,29.73,SSW,199,1.0,4.0,95,0.00,,,0.00,meteohub,2013-02-23 14:02:00,
2013-02-23 15:07:00,27.3,26.1,29.73,SSE,155,2.0,7.0,95,0.00,,,0.00,meteohub,2013-02-23 14:07:00,
2013-02-23 15:12:00,27.3,26.1,29.73,SSE,157,0.0,7.0,95,0.00,,,0.00,meteohub,2013-02-23 14:12:00,
2013-02-23 15:22:00,27.3,26.1,29.74,South,172,2.0,7.0,95,0.00,,,0.00,meteohub,2013-02-23 14:22:00,
2013-02-23 15:27:00,27.1,25.9,29.74,South,182,0.0,5.0,95,0.00,,,0.00,meteohub,2013-02-23 14:27:00,
2013-02-23 15:32:00,27.1,25.9,29.74,South,190,0.0,5.0,95,0.00,,,0.00,meteohub,2013-02-23 14:32:00,
2013-02-23 15:42:00,27.3,26.1,29.74,SSE,154,0.0,2.0,95,0.00,,,0.00,meteohub,2013-02-23 14:42:00,
2013-02-23 15:47:00,27.1,25.9,29.75,SSE,161,1.0,6.0,95,0.00,,,0.00,meteohub,2013-02-23 14:47:00,
2013-02-23 15:57:00,27.1,25.9,29.75,SSE,168,1.0,6.0,95,0.00,,,0.00,meteohub,2013-02-23 14:57:00,
2013-02-23 16:07:00,27.3,26.1,29.75,SSE,166,1.0,4.0,95,0.00,,,0.00,meteohub,2013-02-23 15:07:00,
2013-02-23 16:17:00,27.1,25.9,29.75,SSE,150,2.0,4.0,95,0.00,,,0.00,meteohub,2013-02-23 15:17:00,
2013-02-23 16:27:00,27.1,25.9,29.76,SSE,162,0.0,4.0,95,0.00,,,0.00,meteohub,2013-02-23 15:27:00,
2013-02-23 16:37:00,27.1,25.9,29.75,South,178,1.0,4.0,95,0.00,,,0.00,meteohub,2013-02-23 15:37:00,
2013-02-23 16:42:00,27.1,25.9,29.75,South,180,1.0,4.0,95,0.00,,,0.00,meteohub,2013-02-23 15:42:00,
2013-02-23 16:47:00,27.0,25.7,29.75,SSE,168,0.0,2.0,95,0.00,,,0.00,meteohub,2013-02-23 15:47:00,
2013-02-23 16:52:00,27.0,25.7,29.75,South,188,1.0,2.0,95,0.00,,,0.00,meteohub,2013-02-23 15:52:00,
2013-02-23 16:57:00,25.5,25.0,29.75,SSE,157,3.0,3.0,98,0.00,,,0.00,meteohub,2013-02-23 15:57:00,
2013-02-23 17:02:00,25.5,25.0,29.75,SSE,161,0.0,4.0,98,0.00,,,0.00,meteohub,2013-02-23 16:02:00,
2013-02-23 17:12:00,25.5,25.0,29.75,South,177,0.0,5.0,98,0.00,,,0.00,meteohub,2013-02-23 16:12:00,
2013-02-23 17:17:00,25.5,25.0,29.75,South,175,0.0,5.0,98,0.00,,,0.00,meteohub,2013-02-23 16:17:00,
2013-02-23 17:22:00,25.5,25.0,29.75,South,174,1.0,3.0,98,0.00,,,0.00,meteohub,2013-02-23 16:22:00,
2013-02-23 17:27:00,25.5,25.0,29.75,South,174,0.0,3.0,98,0.00,,,0.00,meteohub,2013-02-23 16:27:00,
2013-02-23 17:32:00,25.5,25.0,29.75,South,173,0.0,2.0,98,0.00,,,0.00,meteohub,2013-02-23 16:32:00,
2013-02-23 17:37:00,25.3,24.8,29.76,South,173,0.0,2.0,98,0.00,,,0.00,meteohub,2013-02-23 16:37:00,
2013-02-23 17:42:00,25.3,24.8,29.76,South,173,0.0,2.0,98,0.00,,,0.00,meteohub,2013-02-23 16:42:00,
2013-02-23 17:47:00,25.3,24.8,29.76,South,173,0.0,1.0,98,0.00,,,0.00,meteohub,2013-02-23 16:47:00,
2013-02-23 17:52:00,25.3,24.8,29.76,South,173,0.0,1.0,98,0.00,,,0.00,meteohub,2013-02-23 16:52:00,
2013-02-23 17:57:00,25.3,24.8,29.76,South,173,0.0,1.0,98,0.00,,,0.00,meteohub,2013-02-23 16:57:00,
2013-02-23 18:02:00,25.3,24.8,29.76,South,173,1.0,1.0,98,0.00,,,0.00,meteohub,2013-02-23 17:02:00,
2013-02-23 18:12:00,25.3,24.8,29.77,South,173,0.0,2.0,98,0.00,,,0.00,meteohub,2013-02-23 17:12:00,
2013-02-23 18:22:00,25.3,24.8,29.77,South,173,0.0,2.0,98,0.00,,,0.00,meteohub,2013-02-23 17:22:00,
2013-02-23 18:27:00,25.3,24.8,29.77,South,173,0.0,1.0,98,0.00,,,0.00,meteohub,2013-02-23 17:27:00,
2013-02-23 18:32:00,25.3,24.8,29.77,South,173,0.0,1.0,98,0.00,,,0.00,meteohub,2013-02-23 17:32:00,
2013-02-23 18:37:00,25.3,24.8,29.77,South,173,0.0,1.0,98,0.00,,,0.00,meteohub,2013-02-23 17:37:00,
2013-02-23 18:42:00,25.3,24.8,29.77,South,173,0.0,1.0,98,0.00,,,0.00,meteohub,2013-02-23 17:42:00,
2013-02-23 18:47:00,25.3,24.8,29.77,South,173,0.0,1.0,98,0.00,,,0.00,meteohub,2013-02-23 17:47:00,
2013-02-23 18:52:00,25.3,24.8,29.78,South,173,0.0,0.0,98,0.00,,,0.00,meteohub,2013-02-23 17:52:00,
2013-02-23 19:02:00,25.5,25.0,29.78,South,173,0.0,0.0,98,0.00,,,0.00,meteohub,2013-02-23 18:02:00,
2013-02-23 19:07:00,25.5,25.0,29.78,South,173,0.0,0.0,98,0.00,,,0.00,meteohub,2013-02-23 18:07:00,
2013-02-23 19:12:00,25.5,25.0,29.79,South,173,0.0,0.0,98,0.00,,,0.00,meteohub,2013-02-23 18:12:00,
2013-02-23 19:22:00,25.5,25.0,29.79,South,175,0.0,1.0,98,0.00,,,0.00,meteohub,2013-02-23 18:22:00,
2013-02-23 19:27:00,25.5,25.0,29.79,South,175,0.0,1.0,98,0.00,,,0.00,meteohub,2013-02-23 18:27:00,
2013-02-23 19:32:00,25.5,25.0,29.79,South,175,0.0,1.0,98,0.00,,,0.00,meteohub,2013-02-23 18:32:00,
2013-02-23 19:37:00,25.5,25.0,29.79,South,175,0.0,1.0,98,0.00,,,0.00,meteohub,2013-02-23 18:37:00,
2013-02-23 19:42:00,25.5,25.0,29.80,South,175,0.0,1.0,98,0.00,,,0.00,meteohub,2013-02-23 18:42:00,
2013-02-23 19:52:00,25.5,25.0,29.80,South,175,0.0,1.0,98,0.00,,,0.00,meteohub,2013-02-23 18:52:00,
2013-02-23 20:02:00,25.5,25.0,29.80,South,175,0.0,1.0,98,0.00,,,0.00,meteohub,2013-02-23 19:02:00,
2013-02-23 20:07:00,25.5,25.0,29.80,South,175,0.0,1.0,98,0.00,,,0.00,meteohub,2013-02-23 19:07:00,
2013-02-23 20:12:00,25.5,25.0,29.80,South,175,0.0,1.0,98,0.00,,,0.00,meteohub,2013-02-23 19:12:00,
2013-02-23 20:22:00,25.3,24.8,29.80,South,175,0.0,1.0,98,0.00,,,0.00,meteohub,2013-02-23 19:22:00,
2013-02-23 20:27:00,25.3,24.8,29.80,South,175,0.0,1.0,98,0.00,,,0.00,meteohub,2013-02-23 19:27:00,
2013-02-23 20:32:00,25.3,24.8,29.80,South,175,0.0,1.0,98,0.00,,,0.00,meteohub,2013-02-23 19:32:00,
2013-02-23 20:37:00,25.3,24.8,29.80,South,175,0.0,1.0,98,0.00,,,0.00,meteohub,2013-02-23 19:37:00,
2013-02-23 20:42:00,25.3,24.8,29.80,South,175,0.0,1.0,98,0.00,,,0.00,meteohub,2013-02-23 19:42:00,
2013-02-23 20:47:00,25.3,24.8,29.81,South,175,0.0,2.0,98,0.00,,,0.00,meteohub,2013-02-23 19:47:00,
2013-02-23 20:57:00,25.3,24.8,29.81,South,175,0.0,0.0,98,0.00,,,0.00,meteohub,2013-02-23 19:57:00,
2013-02-23 21:02:00,25.3,24.8,29.81,South,175,0.0,0.0,98,0.00,,,0.00,meteohub,2013-02-23 20:02:00,
2013-02-23 21:07:00,25.3,24.8,29.81,South,175,0.0,0.0,98,0.00,,,0.00,meteohub,2013-02-23 20:07:00,
2013-02-23 21:17:00,25.3,24.8,29.81,South,175,0.0,0.0,98,0.00,,,0.00,meteohub,2013-02-23 20:17:00,
2013-02-23 21:27:00,25.3,24.8,29.81,South,175,0.0,0.0,98,0.00,,,0.00,meteohub,2013-02-23 20:27:00,
2013-02-23 21:37:00,25.3,24.8,29.82,South,175,0.0,0.0,98,0.00,,,0.00,meteohub,2013-02-23 20:37:00,
2013-02-23 21:47:00,25.3,24.8,29.82,South,175,0.0,1.0,98,0.00,,,0.00,meteohub,2013-02-23 20:47:00,
2013-02-23 21:52:00,25.3,24.8,29.82,South,175,0.0,1.0,98,0.00,,,0.00,meteohub,2013-02-23 20:52:00,
2013-02-23 22:02:00,25.3,24.8,29.82,South,175,0.0,0.0,98,0.00,,,0.00,meteohub,2013-02-23 21:02:00,
2013-02-23 22:12:00,25.3,24.8,29.82,South,175,0.0,0.0,98,0.00,,,0.00,meteohub,2013-02-23 21:12:00,
2013-02-23 22:17:00,25.3,24.8,29.82,South,175,0.0,0.0,98,0.00,,,0.00,meteohub,2013-02-23 21:17:00,
2013-02-23 22:22:00,25.3,24.8,29.82,South,175,0.0,0.0,98,0.00,,,0.00,meteohub,2013-02-23 21:22:00,
2013-02-23 22:32:00,25.3,24.8,29.81,South,175,0.0,0.0,98,0.00,,,0.00,meteohub,2013-02-23 21:32:00,
2013-02-23 22:42:00,25.2,24.6,29.82,South,175,0.0,1.0,98,0.00,,,0.00,meteohub,2013-02-23 21:42:00,
2013-02-23 22:47:00,25.2,24.6,29.81,South,175,0.0,1.0,98,0.00,,,0.00,meteohub,2013-02-23 21:47:00,
2013-02-23 22:52:00,25.2,24.6,29.81,South,175,0.0,1.0,98,0.00,,,0.00,meteohub,2013-02-23 21:52:00,
2013-02-23 22:57:00,25.2,24.6,29.81,South,175,0.0,0.0,98,0.00,,,0.00,meteohub,2013-02-23 21:57:00,
2013-02-23 23:07:00,25.2,24.6,29.81,South,175,0.0,0.0,98,0.00,,,0.00,meteohub,2013-02-23 22:07:00,
2013-02-23 23:12:00,25.2,24.6,29.81,South,175,0.0,0.0,98,0.00,,,0.00,meteohub,2013-02-23 22:12:00,
2013-02-23 23:17:00,25.0,24.4,29.81,South,175,0.0,0.0,98,0.00,,,0.00,meteohub,2013-02-23 22:17:00,
2013-02-23 23:22:00,25.0,24.4,29.81,South,175,0.0,0.0,98,0.00,,,0.00,meteohub,2013-02-23 22:22:00,
2013-02-23 23:27:00,24.6,24.1,29.81,South,175,0.0,0.0,98,0.00,,,0.00,meteohub,2013-02-23 22:27:00,
2013-02-23 23:37:00,24.4,23.9,29.82,South,175,0.0,1.0,98,0.00,,,0.00,meteohub,2013-02-23 22:37:00,
2013-02-23 23:47:00,24.4,23.9,29.83,South,175,0.0,1.0,98,0.00,,,0.00,meteohub,2013-02-23 22:47:00,
2013-02-23 23:52:00,24.4,23.9,29.83,South,175,0.0,1.0,98,0.00,,,0.00,meteohub,2013-02-23 22:52:00,
2013-02-23 23:57:00,24.4,23.9,29.83,South,175,0.0,1.0,98,0.00,,,0.00,meteohub,2013-02-23 22:57:00,